Location: Boiro
(42.6475°N, 8.8834°W)
Time: 21:24:59
(UTC+02:00)

AO-73 - Pass Details

Date: 29 April 2024
Orbit: 560 x 625 km, 97.7° (Epoch: 20 May)

Event Time Altitude Azimuth Distance (km) Brightness Sun altitude
Rises 06:49:09 0° 358° (N) 2,924 ? -8.1°
Reaches altitude 10° 06:51:45 10° 343° (NNW) 2,013 ? -7.6°
Maximum altitude 06:55:04 21° 294° (WNW) 1,399 ? -7.1°
Drops below altitude 10° 06:58:22 10° 245° (WSW) 1,996 ? -6.6°
Enters shadow 06:58:53 - 240° (WSW) 2,162 ? -6.5°
